Simultaneous Nadir Overpasses (SNOs) Predictions

Prediction of SNOs over PacNW region [( 10.00, 139.50) to ( 22.70, 165.60)] between AQUA and NPP Satellites:

Table of predicted SNOs over PacNW region for the next 30.0 days since TLE Epoch: 9/25/2021
Index Date (AQUA) Time (AQUA) AQUA Lat,Lon Date (NPP) Time (NPP) NPP Lat,Lon Distance(km) Time Diff (sec)
1 09/27/2021 03:31:45 22.67, 147.51 09/27/2021 03:28:16 23.10, 145.52 208.92 209
2 10/02/2021 15:59:22 22.60, 147.47 10/02/2021 16:02:38 23.27, 144.45 318.43 196
3 10/10/2021 15:09:55 22.61, 159.84 10/10/2021 15:11:56 23.18, 157.12 285.98 121
4 10/13/2021 03:31:45 22.69, 147.51 10/13/2021 03:28:15 22.86, 145.59 198.05 210
5 10/18/2021 15:59:19 22.63, 147.50 10/18/2021 16:02:40 23.30, 144.47 319.03 201
6 10/21/2021 02:42:15 22.65, 159.90 10/21/2021 02:38:46 27.27, 157.15 583.53 209
